Location: Aigremont
(47.7188°N, 3.8925°E)
Time: 03:01:46
(UTC+00:00)

SL-16 R/B - Pass Details

Date: 18 February 2020
Orbit: 843 x 847 km, 71.0° (Epoch: 09 April)

Event Time Altitude Azimuth Distance (km) Brightness Sun altitude
Exits shadow 06:11:05 - 279° (W) 2,653 4.1 -6.6°
Reaches altitude 10° 06:11:53 10° 286° (WNW) 2,471 4.0 -6.5°
Maximum altitude 06:15:17 16° 323° (NW) 2,075 3.8 -5.9°
Drops below altitude 10° 06:18:43 10° 1° (N) 2,476 4.5 -5.3°
Sets 06:22:13 0° 22° (NNE) 3,414 5.5 -4.8°
